CW9648 Weather Reports


Display with metric or nautical units.
time (UTC)temp
F
wind
direction
speed
MPH
gust
MPH
rain 1hr
in
rain 24hr
in
rain mn
in
humidity
%
barometer
mb
20260831091525 76 0 0.0 0.0 0.00 0.00 0.00 69 1016.6
20260831091024 76 0 0.0 0.0 0.00 0.00 0.00 69 1016.6
20260831090503 76 0 0.0 0.0 0.00 0.00 0.00 69 1016.6
20260831090004 76 0 0.0 0.0 0.00 0.00 0.00 70 1016.6
20260831085503 76 0 0.0 0.0 0.00 0.00 0.00 70 1016.6
20260831085004 77 222 0.0 1.0 0.00 0.00 0.00 71 1016.6
20260831084503 77 222 0.0 1.0 0.00 0.00 0.00 71 1016.6
20260831084003 77 222 0.0 1.0 0.00 0.00 0.00 71 1016.7
20260831083504 77 0 0.0 0.0 0.00 0.00 0.00 72 1016.8
20260831083003 77 222 0.0 1.0 0.00 0.00 0.00 72 1016.7
20260831082503 77 222 0.0 1.0 0.00 0.00 0.00 73 1016.9
20260831082003 78 0 0.0 0.0 0.00 0.00 0.00 74 1016.7
20260831081504 78 0 0.0 0.0 0.00 0.00 0.00 75 1016.8
20260831081003 78 0 0.0 0.0 0.00 0.00 0.00 75 1016.9
20260831080524 78 0 0.0 0.0 0.00 0.00 0.00 75 1016.8
20260831080004 78 0 0.0 0.0 0.00 0.00 0.00 75 1016.7
20260831075503 78 0 0.0 0.0 0.00 0.00 0.00 75 1016.9
20260831075003 78 0 0.0 0.0 0.00 0.00 0.00 75 1016.9
20260831074503 78 222 0.0 1.0 0.00 0.00 0.00 75 1016.8
20260831074024 78 222 0.0 1.0 0.00 0.00 0.00 75 1016.9
20260831073524 78 222 0.0 1.0 0.00 0.00 0.00 75 1017.0
20260831073004 78 222 0.0 1.0 0.00 0.00 0.00 76 1017.1
20260831072503 78 215 0.0 1.0 0.00 0.00 0.00 76 1017.2
20260831072004 78 253 0.0 2.0 0.00 0.00 0.00 76 1017.1
20260831071504 78 259 0.0 2.0 0.00 0.00 0.00 76 1017.1
20260831071003 78 246 0.0 1.0 0.00 0.00 0.00 76 1017.1
20260831070503 78 0 0.0 0.0 0.00 0.00 0.00 77 1017.1
20260831070003 78 0 0.0 0.0 0.00 0.00 0.00 77 1017.1
20260831065524 78 0 0.0 0.0 0.00 0.00 0.00 77 1016.9
20260831065003 78 0 0.0 0.0 0.00 0.00 0.00 77 1016.8
20260831064503 78 0 0.0 0.0 0.00 0.00 0.00 77 1016.8
20260831064003 79 0 0.0 0.0 0.00 0.00 0.00 77 1016.9
20260831063503 79 0 0.0 0.0 0.00 0.00 0.00 78 1016.8
20260831063003 79 0 0.0 0.0 0.00 0.00 0.00 78 1016.8
20260831062503 79 0 0.0 0.0 0.00 0.00 0.00 78 1017.0
20260831062003 79 0 0.0 0.0 0.00 0.00 0.00 78 1017.0
20260831061503 79 0 0.0 0.0 0.00 0.00 0.00 78 1016.9
20260831061003 79 0 0.0 0.0 0.00 0.00 0.00 78 1017.0
20260831060503 79 0 0.0 0.0 0.00 0.00 0.00 78 1017.0
20260831060003 79 0 0.0 0.0 0.00 0.00 0.00 78 1017.0
20260831055503 80 0 0.0 0.0 0.00 0.00 0.00 78 1016.9
20260831055004 80 0 0.0 0.0 0.00 0.00 0.00 78 1016.9
20260831054503 80 0 0.0 0.0 0.00 0.00 0.00 78 1017.0
20260831054003 80 0 0.0 0.0 0.00 0.00 0.00 78 1017.0
20260831053524 80 0 0.0 0.0 0.00 0.00 0.00 78 1016.9
20260831053003 80 246 0.0 1.0 0.00 0.00 0.00 78 1016.9
20260831052503 80 0 0.0 0.0 0.00 0.00 0.00 78 1016.9
20260831052004 81 0 0.0 0.0 0.00 0.00 0.00 78 1016.8
20260831051503 81 0 0.0 0.0 0.00 0.00 0.00 78 1016.7
20260831051003 81 0 0.0 0.0 0.00 0.00 0.00 78 1016.7
20260831050524 81 246 0.0 1.0 0.00 0.00 0.00 78 1016.7
20260831050003 81 246 0.0 1.0 0.00 0.00 0.00 77 1016.8
20260831045503 81 0 0.0 0.0 0.00 0.00 0.00 78 1016.8
20260831045003 81 0 0.0 0.0 0.00 0.00 0.00 78 1016.7
20260831044504 82 0 0.0 0.0 0.00 0.00 0.00 78 1016.8
20260831044003 82 0 0.0 0.0 0.00 0.00 0.00 78 1016.8
20260831043503 82 0 0.0 0.0 0.00 0.00 0.00 78 1016.7
20260831043003 82 0 0.0 0.0 0.00 0.00 0.00 77 1016.7
20260831042503 82 0 0.0 0.0 0.00 0.00 0.00 77 1016.6
20260831042024 82 0 0.0 0.0 0.00 0.00 0.00 77 1016.6
20260831041503 82 0 0.0 0.0 0.00 0.00 0.00 77 1016.7
20260831041003 82 0 0.0 0.0 0.00 0.00 0.00 76 1016.6
20260831040503 83 0 0.0 0.0 0.00 0.00 0.00 76 1016.5
20260831040003 83 0 0.0 0.0 0.00 0.00 0.00 76 1016.5
20260831035503 83 0 0.0 0.0 0.00 0.00 0.00 75 1016.5
20260831035003 83 0 0.0 0.0 0.00 0.00 0.00 75 1016.4
20260831034503 83 0 0.0 0.0 0.00 0.00 0.00 74 1016.4
20260831034003 83 0 0.0 0.0 0.00 0.00 0.00 74 1016.4
20260831033503 84 0 0.0 0.0 0.00 0.00 0.00 74 1016.2
20260831033003 84 0 0.0 0.0 0.00 0.00 0.00 72 1016.1
20260831032503 84 0 0.0 0.0 0.00 0.00 0.00 74 1016.1
20260831032003 84 0 0.0 0.0 0.00 0.00 0.00 72 1016.0
20260831031503 84 0 0.0 0.0 0.00 0.00 0.00 73 1016.0
20260831031003 84 140 0.0 1.0 0.00 0.00 0.00 73 1015.9
20260831030524 84 209 0.0 2.0 0.00 0.00 0.00 72 1015.8
20260831030003 84 232 1.0 2.0 0.00 0.00 0.00 72 1015.8
20260831025503 84 230 1.0 2.0 0.00 0.00 0.00 71 1015.7
20260831025003 84 194 0.0 5.0 0.00 0.00 0.00 72 1015.5
20260831024503 83 189 0.0 5.0 0.00 0.00 0.00 71 1015.4
20260831024003 83 0 0.0 0.0 0.00 0.00 0.00 71 1015.3
20260831023503 83 0 0.0 0.0 0.00 0.00 0.00 71 1015.2
20260831023003 84 0 0.0 0.0 0.00 0.00 0.00 71 1015.1
20260831022503 84 0 0.0 0.0 0.00 0.00 0.00 69 1015.0
20260831022024 84 0 0.0 0.0 0.00 0.00 0.00 68 1014.9
20260831021503 84 0 0.0 0.0 0.00 0.00 0.00 69 1014.8
20260831021003 84 0 0.0 0.0 0.00 0.00 0.00 68 1014.7
20260831020503 84 0 0.0 0.0 0.00 0.00 0.00 67 1014.6
20260831020003 85 0 0.0 0.0 0.00 0.00 0.00 66 1014.6
20260831015503 85 0 0.0 0.0 0.00 0.00 0.00 67 1014.5
20260831015003 85 0 0.0 0.0 0.00 0.00 0.00 65 1014.4
20260831014503 85 0 0.0 0.0 0.00 0.00 0.00 66 1014.4
20260831014003 86 0 0.0 0.0 0.00 0.00 0.00 64 1014.4
20260831013524 86 0 0.0 0.0 0.00 0.00 0.00 64 1014.3
20260831013003 86 0 0.0 0.0 0.00 0.00 0.00 63 1014.2
20260831012503 87 0 0.0 0.0 0.00 0.00 0.00 62 1014.3
20260831012003 87 0 0.0 0.0 0.00 0.00 0.00 63 1014.3
20260831011503 88 0 0.0 0.0 0.00 0.00 0.00 60 1014.2
20260831011003 88 0 0.0 0.0 0.00 0.00 0.00 59 1014.1
20260831010524 89 0 0.0 0.0 0.00 0.00 0.00 56 1014.1
20260831010003 90 0 0.0 0.0 0.00 0.00 0.00 58 1014.0
20260831005503 90 0 0.0 0.0 0.00 0.00 0.00 53 1014.0
20260831005003 90 0 0.0 0.0 0.00 0.00 0.00 52 1013.9
20260831004503 91 0 0.0 0.0 0.00 0.00 0.00 54 1014.0
20260831004003 92 170 0.0 1.0 0.00 0.00 0.00 53 1014.1
20260831003503 92 172 0.0 1.0 0.00 0.00 0.00 52 1014.1
20260831003003 93 171 1.0 4.0 0.00 0.00 0.00 52 1014.0
20260831002525 94 169 1.0 4.0 0.00 0.00 0.00 49 1014.1
20260831002004 94 157 1.0 3.0 0.00 0.00 0.00 49 1014.1
20260831001504 94 159 1.0 3.0 0.00 0.00 0.00 46 1014.2
20260831001004 95 162 1.0 3.0 0.00 0.00 0.00 46 1014.2
20260831000504 95 154 1.0 4.0 0.00 0.00 0.00 45 1014.2
20260831000004 95 156 1.0 4.0 0.00 0.00 0.00 44 1014.2
20260830235504 96 168 1.0 3.0 0.00 0.00 0.00 44 1014.2
20260830235025 96 157 1.0 4.0 0.00 0.00 0.00 44 1014.3
20260830234525 96 124 2.0 6.0 0.00 0.00 0.00 45 1014.2
20260830234025 97 131 2.0 6.0 0.00 0.00 0.00 44 1014.1
20260830233525 97 169 1.0 4.0 0.00 0.00 0.00 45 1014.1
20260830233004 98 172 2.0 5.0 0.00 0.00 0.00 43 1014.0
20260830232504 98 156 2.0 5.0 0.00 0.00 0.00 41 1014.1
20260830232004 99 135 1.0 5.0 0.00 0.00 0.00 40 1014.2
20260830231504 99 166 1.0 3.0 0.00 0.00 0.00 38 1014.1
20260830231004 99 207 1.0 3.0 0.00 0.00 0.00 37 1014.2
20260830230525 99 184 2.0 6.0 0.00 0.00 0.00 37 1014.2
20260830230004 99 171 2.0 6.0 0.00 0.00 0.00 38 1014.2
20260830225504 100 188 1.0 4.0 0.00 0.00 0.00 37 1014.2
20260830225004 100 187 1.0 5.0 0.00 0.00 0.00 38 1014.1
20260830224525 100 170 2.0 5.0 0.00 0.00 0.00 36 1014.1
20260830224004 99 166 2.0 5.0 0.00 0.00 0.00 36 1014.1
20260830223504 100 174 3.0 5.0 0.00 0.00 0.00 36 1014.1
20260830223004 100 175 2.0 5.0 0.00 0.00 0.00 37 1014.1
20260830222504 100 181 2.0 5.0 0.00 0.00 0.00 36 1014.1
20260830222004 100 182 2.0 6.0 0.00 0.00 0.00 35 1014.1
20260830221504 100 192 2.0 6.0 0.00 0.00 0.00 34 1014.1
20260830221004 101 195 2.0 6.0 0.00 0.00 0.00 35 1014.0
20260830220504 101 170 2.0 6.0 0.00 0.00 0.00 34 1014.1
20260830220004 102 174 2.0 6.0 0.00 0.00 0.00 35 1014.0
20260830215504 102 184 1.0 6.0 0.00 0.00 0.00 33 1014.0
20260830215004 101 170 2.0 5.0 0.00 0.00 0.00 33 1014.0
20260830214504 101 168 2.0 5.0 0.00 0.00 0.00 34 1014.1
20260830214004 101 185 2.0 5.0 0.00 0.00 0.00 35 1014.1
20260830213504 101 330 3.0 5.0 0.00 0.00 0.00 33 1014.2
20260830213004 101 328 2.0 5.0 0.00 0.00 0.00 33 1014.2
20260830212504 102 171 2.0 7.0 0.00 0.00 0.00 33 1014.3
20260830212004 101 165 3.0 7.0 0.00 0.00 0.00 33 1014.4
20260830211504 101 187 3.0 7.0 0.00 0.00 0.00 35 1014.5
20260830211004 101 198 2.0 6.0 0.00 0.00 0.00 36 1014.6
20260830210504 101 167 2.0 7.0 0.00 0.00 0.00 37 1014.7
20260830210007 101 135 3.0 7.0 0.00 0.00 0.00 35 1014.9
20260830205504 101 121 2.0 6.0 0.00 0.00 0.00 36 1014.9
20260830205004 101 53 1.0 5.0 0.00 0.00 0.00 34 1015.0
20260830204504 100 17 1.0 4.0 0.00 0.00 0.00 37 1015.2
20260830204004 100 152 2.0 6.0 0.00 0.00 0.00 34 1015.2
20260830203504 100 196 3.0 6.0 0.00 0.00 0.00 37 1015.3
20260830203004 100 198 3.0 7.0 0.00 0.00 0.00 40 1015.3
20260830202504 101 176 3.0 8.0 0.00 0.00 0.00 38 1015.3
20260830202004 101 172 2.0 8.0 0.00 0.00 0.00 38 1015.3
20260830201504 101 355 2.0 5.0 0.00 0.00 0.00 40 1015.4
20260830201004 100 179 3.0 9.0 0.00 0.00 0.00 40 1015.5
20260830200504 100 171 3.0 9.0 0.00 0.00 0.00 40 1015.5
20260830200004 100 155 3.0 7.0 0.00 0.00 0.00 41 1015.6
20260830195504 100 160 3.0 7.0 0.00 0.00 0.00 41 1015.7
20260830195025 100 183 2.0 7.0 0.00 0.00 0.00 42 1015.7
20260830194504 99 211 2.0 6.0 0.00 0.00 0.00 39 1015.8
20260830194025 99 176 3.0 7.0 0.00 0.00 0.00 40 1015.9
20260830193504 99 163 4.0 7.0 0.00 0.00 0.00 42 1016.0
20260830193004 99 164 3.0 7.0 0.00 0.00 0.00 42 1016.1
20260830192525 99 182 3.0 7.0 0.00 0.00 0.00 41 1016.2
20260830192025 99 180 3.0 8.0 0.00 0.00 0.00 39 1016.3
20260830191504 99 142 3.0 8.0 0.00 0.00 0.00 42 1016.5
20260830191004 100 127 3.0 8.0 0.00 0.00 0.00 42 1016.6
20260830190504 99 103 3.0 7.0 0.00 0.00 0.00 41 1016.7
20260830190004 99 62 2.0 6.0 0.00 0.00 0.00 43 1016.9
20260830185504 99 169 2.0 9.0 0.00 0.00 0.00 42 1017.0
20260830185004 99 165 4.0 9.0 0.00 0.00 0.00 43 1017.1
20260830184504 99 152 4.0 8.0 0.00 0.00 0.00 45 1017.2
20260830184004 98 168 3.0 8.0 0.00 0.00 0.00 47 1017.2
20260830183504 97 184 4.0 9.0 0.00 0.00 0.00 52 1017.2
20260830183004 97 194 4.0 9.0 0.00 0.00 0.00 52 1017.4
20260830182504 97 203 3.0 8.0 0.00 0.00 0.00 53 1017.4
20260830182025 98 171 3.0 8.0 0.00 0.00 0.00 50 1017.4
20260830181504 97 134 3.0 9.0 0.00 0.00 0.00 51 1017.4
20260830181004 97 147 3.0 9.0 0.00 0.00 0.00 51 1017.5
20260830180504 96 171 3.0 7.0 0.00 0.00 0.00 52 1017.6
20260830180004 96 172 3.0 8.0 0.00 0.00 0.00 52 1017.6
20260830175504 96 168 4.0 8.0 0.00 0.00 0.00 52 1017.7
20260830175004 96 148 3.0 9.0 0.00 0.00 0.00 52 1017.8
20260830174504 96 160 3.0 9.0 0.00 0.00 0.00 53 1017.9
20260830174004 95 217 3.0 9.0 0.00 0.00 0.00 55 1018.0
20260830173504 95 204 3.0 6.0 0.00 0.00 0.00 54 1018.0
20260830173004 96 182 3.0 6.0 0.00 0.00 0.00 57 1018.1
20260830172504 95 217 2.0 5.0 0.00 0.00 0.00 57 1018.2
20260830172025 95 224 2.0 5.0 0.00 0.00 0.00 55 1018.2
20260830171504 95 215 2.0 6.0 0.00 0.00 0.00 56 1018.3
20260830171004 95 214 2.0 7.0 0.00 0.00 0.00 57 1018.3
20260830170504 94 167 3.0 8.0 0.00 0.00 0.00 59 1018.3
20260830170004 94 165 3.0 8.0 0.00 0.00 0.00 56 1018.3
20260830165525 95 177 2.0 7.0 0.00 0.00 0.00 59 1018.2
20260830165025 95 206 2.0 7.0 0.00 0.00 0.00 59 1018.3
20260830164504 94 304 2.0 5.0 0.00 0.00 0.00 57 1018.4
20260830164004 93 307 2.0 5.0 0.00 0.00 0.00 56 1018.4
20260830163504 93 320 3.0 7.0 0.00 0.00 0.00 58 1018.4
20260830163004 92 307 2.0 7.0 0.00 0.00 0.00 59 1018.6
20260830162504 92 229 2.0 5.0 0.00 0.00 0.00 59 1018.6
20260830162025 92 229 2.0 5.0 0.00 0.00 0.00 62 1018.5
20260830161504 92 220 2.0 4.0 0.00 0.00 0.00 61 1018.6
20260830161004 92 219 2.0 4.0 0.00 0.00 0.00 64 1018.6
20260830160504 91 255 2.0 4.0 0.00 0.00 0.00 66 1018.6
20260830160025 90 222 2.0 5.0 0.00 0.00 0.00 66 1018.5
20260830155525 90 190 2.0 5.0 0.00 0.00 0.00 66 1018.5
20260830155004 90 227 2.0 5.0 0.00 0.00 0.00 65 1018.7
20260830154504 90 214 2.0 5.0 0.00 0.00 0.00 68 1018.6
20260830154025 90 169 2.0 4.0 0.00 0.00 0.00 67 1018.6
20260830153504 89 199 2.0 5.0 0.00 0.00 0.00 67 1018.6
20260830153004 89 258 2.0 6.0 0.00 0.00 0.00 67 1018.7
20260830152504 88 264 2.0 6.0 0.00 0.00 0.00 70 1018.6
20260830152004 88 215 2.0 5.0 0.00 0.00 0.00 70 1018.6
20260830151504 88 238 2.0 5.0 0.00 0.00 0.00 71 1018.7
20260830151025 87 262 2.0 6.0 0.00 0.00 0.00 71 1018.7
20260830150504 87 332 2.0 8.0 0.00 0.00 0.00 71 1018.8
20260830150004 87 336 2.0 8.0 0.00 0.00 0.00 71 1018.8
20260830145503 86 216 2.0 5.0 0.00 0.00 0.00 71 1018.8
20260830145025 86 221 2.0 5.0 0.00 0.00 0.00 72 1018.9
20260830144504 85 296 2.0 5.0 0.00 0.00 0.00 74 1018.9
20260830144025 85 342 2.0 5.0 0.00 0.00 0.00 74 1018.8
20260830143503 85 336 2.0 5.0 0.00 0.00 0.00 75 1018.8
20260830143004 84 247 2.0 5.0 0.00 0.00 0.00 76 1018.8
20260830142504 84 216 2.0 5.0 0.00 0.00 0.00 76 1018.8
20260830142004 84 320 1.0 3.0 0.00 0.00 0.00 76 1018.7
20260830141503 83 352 2.0 5.0 0.00 0.00 0.00 76 1018.8
20260830141003 83 354 1.0 5.0 0.00 0.00 0.00 75 1018.9
20260830140504 82 336 1.0 3.0 0.00 0.00 0.00 74 1018.8
20260830140004 82 323 1.0 3.0 0.00 0.00 0.00 74 1018.8
20260830135503 81 280 1.0 3.0 0.00 0.00 0.00 72 1018.8
20260830135004 81 247 1.0 3.0 0.00 0.00 0.00 70 1018.8
20260830134503 80 5 1.0 3.0 0.00 0.00 0.00 65 1018.8
20260830134003 79 1 1.0 5.0 0.00 0.00 0.00 61 1018.8
20260830133503 79 360 1.0 5.0 0.00 0.00 0.00 56 1018.7
20260830133004 78 360 0.0 3.0 0.00 0.00 0.00 50 1018.7
20260830132504 78 360 0.0 1.0 0.00 0.00 0.00 48 1018.7
20260830132003 77 0 0.0 0.0 0.00 0.00 0.00 47 1018.6
20260830131504 77 0 0.0 0.0 0.00 0.00 0.00 46 1018.4
20260830131025 77 0 0.0 0.0 0.00 0.00 0.00 46 1018.6
20260830130504 76 0 0.0 0.0 0.00 0.00 0.00 46 1018.5
20260830130004 76 0 0.0 0.0 0.00 0.00 0.00 46 1018.5
20260830125503 76 0 0.0 0.0 0.00 0.00 0.00 46 1018.5
20260830125003 76 0 0.0 0.0 0.00 0.00 0.00 46 1018.5
20260830124525 76 0 0.0 0.0 0.00 0.00 0.00 46 1018.4
20260830124004 75 0 0.0 0.0 0.00 0.00 0.00 46 1018.4
20260830123503 75 0 0.0 0.0 0.00 0.00 0.00 46 1018.3
20260830123003 75 0 0.0 0.0 0.00 0.00 0.00 46 1018.3
20260830122503 75 0 0.0 0.0 0.00 0.00 0.00 47 1018.3
20260830122003 75 0 0.0 0.0 0.00 0.00 0.00 47 1018.2
20260830121504 75 0 0.0 0.0 0.00 0.00 0.00 47 1018.2
20260830121003 75 0 0.0 0.0 0.00 0.00 0.00 47 1018.2
20260830120525 75 0 0.0 0.0 0.00 0.00 0.00 47 1018.1
20260830120004 75 0 0.0 0.0 0.00 0.00 0.00 47 1018.2
20260830115503 75 0 0.0 0.0 0.00 0.00 0.00 48 1018.1
20260830115003 75 0 0.0 0.0 0.00 0.00 0.00 48 1018.1
20260830114503 75 0 0.0 0.0 0.00 0.00 0.00 49 1017.9
20260830114003 75 0 0.0 0.0 0.00 0.00 0.00 50 1017.9
20260830113503 75 0 0.0 0.0 0.00 0.00 0.00 51 1017.8
20260830113004 75 0 0.0 0.0 0.00 0.00 0.00 51 1017.8
20260830112504 76 0 0.0 0.0 0.00 0.00 0.00 51 1017.6
20260830112024 76 0 0.0 0.0 0.00 0.00 0.00 52 1017.6
20260830111503 76 0 0.0 0.0 0.00 0.00 0.00 52 1017.7
20260830111003 76 0 0.0 0.0 0.00 0.00 0.00 53 1017.6
20260830110503 76 0 0.0 0.0 0.00 0.00 0.00 55 1017.6
20260830110004 76 0 0.0 0.0 0.00 0.00 0.00 56 1017.6
20260830105503 76 0 0.0 0.0 0.00 0.00 0.00 56 1017.5
20260830105003 76 0 0.0 0.0 0.00 0.00 0.00 57 1017.5
20260830104503 76 0 0.0 0.0 0.00 0.00 0.00 58 1017.5
20260830104003 76 0 0.0 0.0 0.00 0.00 0.00 59 1017.6
20260830103503 77 0 0.0 0.0 0.00 0.00 0.00 61 1017.5
20260830103003 77 0 0.0 0.0 0.00 0.00 0.00 62 1017.5
20260830102503 77 0 0.0 0.0 0.00 0.00 0.00 63 1017.6
20260830102004 78 0 0.0 0.0 0.00 0.00 0.00 64 1017.5
20260830101503 78 0 0.0 0.0 0.00 0.00 0.00 64 1017.5
20260830101003 78 0 0.0 0.0 0.00 0.00 0.00 65 1017.3
20260830100503 78 0 0.0 0.0 0.00 0.00 0.00 65 1017.3
20260830100004 78 0 0.0 0.0 0.00 0.00 0.00 66 1017.2
20260830095503 78 177 0.0 2.0 0.00 0.00 0.00 67 1017.2
20260830095003 78 177 0.0 2.0 0.00 0.00 0.00 67 1017.2
20260830094524 79 177 0.0 2.0 0.00 0.00 0.00 68 1017.2
20260830094024 79 174 0.0 3.0 0.00 0.00 0.00 68 1017.2
20260830093524 79 169 1.0 3.0 0.00 0.00 0.00 68 1017.2
20260830093003 79 171 1.0 2.0 0.00 0.00 0.00 68 1017.2
20260830092524 79 182 0.0 2.0 0.00 0.00 0.00 68 1017.2
20260830092003 79 206 0.0 2.0 0.00 0.00 0.00 68 1017.0